Hourly Weather Bolshie Lipki

Today, 20 June, Sunday

Time Temperature Precipitation Wind Pressure Humidity
00:00 +19°C° 0 mm 2 mps 757 mmHg 82%
01:00 +18°C° 0 mm 2 mps 758 mmHg 83%
02:00 +18°C° 0 mm 2 mps 758 mmHg 84%
03:00 +19°C° 0 mm 2 mps 757 mmHg 85%
04:00 +19°C° 0 mm 2 mps 757 mmHg 85%
05:00 +19°C° 0 mm 2 mps 757 mmHg 85%
06:00 +21°C° 0 mm 2 mps 757 mmHg 77%
07:00 +24°C° 0 mm 2 mps 757 mmHg 70%
08:00 +26°C° 0 mm 2 mps 757 mmHg 63%
09:00 +28°C° 0 mm 2 mps 757 mmHg 57%
10:00 +29°C° 0 mm 3 mps 757 mmHg 51%
11:00 +30°C° 0 mm 3 mps 757 mmHg 45%
12:00 +31°C° 0 mm 3 mps 757 mmHg 43%
13:00 +33°C° 0 mm 3 mps 756 mmHg 41%
14:00 +33°C° 0 mm 4 mps 756 mmHg 39%
15:00 +33°C° 0 mm 3 mps 756 mmHg 41%
16:00 +33°C° 0 mm 3 mps 756 mmHg 43%
17:00 +32°C° 0 mm 2 mps 756 mmHg 45%
18:00 +30°C° 0 mm 2 mps 756 mmHg 54%
19:00 +28°C° 0 mm 1 mps 756 mmHg 62%
20:00 +26°C° 0 mm 1 mps 755 mmHg 71%
21:00 +25°C° 0 mm 1 mps 755 mmHg 73%
22:00 +24°C° 0 mm 1 mps 756 mmHg 75%
23:00 +23°C° 0 mm 1 mps 756 mmHg 76%

Tomorrow, 21 June, Monday

Time Temperature Precipitation Wind Pressure Humidity
00:00 +22°C° 0.3 mm 1 mps 756 mmHg 80%
01:00 +20°C° 0.3 mm 2 mps 756 mmHg 83%
02:00 +19°C° 0.3 mm 2 mps 756 mmHg 87%
03:00 +21°C° 0.5 mm 1 mps 756 mmHg 89%
04:00 +21°C° 0.5 mm 1 mps 756 mmHg 91%
05:00 +21°C° 0.5 mm 1 mps 756 mmHg 94%
06:00 +23°C° 0 mm 2 mps 756 mmHg 86%
07:00 +25°C° 0 mm 2 mps 756 mmHg 79%
08:00 +27°C° 0 mm 2 mps 756 mmHg 71%
09:00 +29°C° 0 mm 3 mps 756 mmHg 63%
10:00 +30°C° 0 mm 3 mps 756 mmHg 55%
11:00 +33°C° 0 mm 3 mps 756 mmHg 48%
12:00 +33°C° 0 mm 3 mps 756 mmHg 45%
13:00 +34°C° 0 mm 3 mps 755 mmHg 43%
14:00 +34°C° 0 mm 3 mps 755 mmHg 41%
15:00 +34°C° 0 mm 3 mps 755 mmHg 43%
16:00 +34°C° 0 mm 3 mps 755 mmHg 44%
17:00 +34°C° 0 mm 2 mps 754 mmHg 46%
18:00 +31°C° 0 mm 2 mps 754 mmHg 54%
19:00 +29°C° 0 mm 2 mps 754 mmHg 63%
20:00 +27°C° 0 mm 2 mps 754 mmHg 71%
21:00 +26°C° 0 mm 2 mps 755 mmHg 73%
22:00 +24°C° 0 mm 2 mps 755 mmHg 74%
23:00 +23°C° 0 mm 2 mps 755 mmHg 75%

Day after tomorrow, 22 June, Tuesday

Time Temperature Precipitation Wind Pressure Humidity
00:00 +21°C° 0 mm 2 mps 755 mmHg 77%
01:00 +21°C° 0 mm 2 mps 755 mmHg 79%
02:00 +20°C° 0 mm 2 mps 755 mmHg 80%
03:00 +20°C° 0 mm 2 mps 755 mmHg 81%
04:00 +20°C° 0 mm 2 mps 755 mmHg 82%
05:00 +21°C° 0 mm 2 mps 755 mmHg 82%
06:00 +24°C° 0 mm 3 mps 755 mmHg 76%
07:00 +26°C° 0 mm 3 mps 755 mmHg 70%
08:00 +27°C° 0 mm 4 mps 755 mmHg 64%
09:00 +29°C° 0 mm 4 mps 755 mmHg 59%
10:00 +30°C° 0 mm 4 mps 754 mmHg 53%
11:00 +32°C° 0 mm 5 mps 754 mmHg 47%
12:00 +33°C° 0 mm 5 mps 754 mmHg 48%
13:00 +33°C° 0 mm 5 mps 754 mmHg 48%
14:00 +33°C° 0 mm 4 mps 754 mmHg 49%
15:00 +32°C° 0 mm 4 mps 754 mmHg 54%
16:00 +31°C° 0 mm 3 mps 754 mmHg 58%
17:00 +30°C° 0 mm 2 mps 754 mmHg 63%
18:00 +29°C° 0.1 mm 2 mps 754 mmHg 68%
19:00 +28°C° 0.1 mm 2 mps 754 mmHg 73%
20:00 +26°C° 0.1 mm 2 mps 754 mmHg 78%
21:00 +25°C° 0.1 mm 2 mps 754 mmHg 81%
22:00 +24°C° 0.1 mm 2 mps 754 mmHg 84%
23:00 +23°C° 0.1 mm 2 mps 754 mmHg 88%

23 June, Wednesday

Time Temperature Precipitation Wind Pressure Humidity
00:00 +23°C° 0 mm 2 mps 755 mmHg 89%
01:00 +23°C° 0 mm 2 mps 755 mmHg 90%
02:00 +21°C° 0 mm 2 mps 755 mmHg 91%
03:00 +23°C° 0 mm 2 mps 755 mmHg 91%
04:00 +23°C° 0 mm 2 mps 755 mmHg 90%
05:00 +23°C° 0 mm 2 mps 755 mmHg 90%
06:00 +25°C° 0 mm 2 mps 756 mmHg 82%
07:00 +27°C° 0 mm 2 mps 756 mmHg 74%
08:00 +29°C° 0 mm 3 mps 756 mmHg 66%
09:00 +30°C° 0 mm 3 mps 756 mmHg 59%
10:00 +31°C° 0 mm 3 mps 756 mmHg 52%
11:00 +34°C° 0 mm 3 mps 756 mmHg 46%
12:00 +34°C° 0 mm 3 mps 756 mmHg 41%
13:00 +35°C° 0 mm 4 mps 756 mmHg 37%
14:00 +36°C° 0 mm 4 mps 756 mmHg 32%
15:00 +35°C° 0 mm 3 mps 756 mmHg 35%
16:00 +35°C° 0 mm 3 mps 756 mmHg 38%
17:00 +35°C° 0 mm 2 mps 756 mmHg 41%
18:00 +32°C° 0 mm 2 mps 756 mmHg 50%
19:00 +30°C° 0 mm 1 mps 756 mmHg 60%
20:00 +27°C° 0 mm 1 mps 755 mmHg 70%
21:00 +26°C° 0 mm 1 mps 756 mmHg 72%
22:00 +25°C° 0 mm 1 mps 756 mmHg 74%
23:00 +24°C° 0 mm 1 mps 756 mmHg 77%

24 June, Thursday

Time Temperature Precipitation Wind Pressure Humidity
00:00 +24°C° 0 mm 1 mps 756 mmHg 79%
01:00 +23°C° 0 mm 1 mps 756 mmHg 81%
02:00 +23°C° 0 mm 1 mps 756 mmHg 83%
03:00 +23°C° 0 mm 1 mps 756 mmHg 84%
04:00 +24°C° 0 mm 1 mps 756 mmHg 85%
05:00 +24°C° 0 mm 1 mps 756 mmHg 86%
06:00 +26°C° 0 mm 2 mps 756 mmHg 79%
07:00 +28°C° 0 mm 2 mps 756 mmHg 72%
08:00 +29°C° 0 mm 2 mps 756 mmHg 64%
09:00 +31°C° 0 mm 3 mps 756 mmHg 59%
10:00 +33°C° 0 mm 3 mps 755 mmHg 54%
11:00 +35°C° 0 mm 3 mps 755 mmHg 48%
12:00 +35°C° 0 mm 3 mps 755 mmHg 45%
13:00 +36°C° 0 mm 4 mps 755 mmHg 42%
14:00 +37°C° 0 mm 4 mps 754 mmHg 39%
15:00 +34°C° 1.2 mm 4 mps 754 mmHg 51%
16:00 +30°C° 1.2 mm 4 mps 753 mmHg 64%
17:00 +27°C° 1.2 mm 4 mps 752 mmHg 77%
18:00 +25°C° 3.5 mm 3 mps 753 mmHg 83%
19:00 +24°C° 3.5 mm 2 mps 754 mmHg 90%
20:00 +22°C° 3.5 mm 1 mps 754 mmHg 97%
21:00 +22°C° 0.5 mm 1 mps 754 mmHg 97%
22:00 +22°C° 0.5 mm 1 mps 754 mmHg 97%
23:00 +21°C° 0.5 mm 1 mps 755 mmHg 97%

25 June, Friday

Time Temperature Precipitation Wind Pressure Humidity
00:00 +21°C° 0 mm 1 mps 754 mmHg 97%
01:00 +21°C° 0 mm 1 mps 754 mmHg 97%
02:00 +21°C° 0 mm 1 mps 754 mmHg 97%
03:00 +21°C° 0.3 mm 1 mps 754 mmHg 97%
04:00 +21°C° 0.3 mm 1 mps 754 mmHg 97%
05:00 +21°C° 0.3 mm 1 mps 754 mmHg 97%
06:00 +22°C° 0.1 mm 1 mps 754 mmHg 93%
07:00 +23°C° 0.1 mm 1 mps 754 mmHg 89%
08:00 +25°C° 0.1 mm 1 mps 753 mmHg 85%
09:00 +26°C° 0 mm 1 mps 753 mmHg 76%
10:00 +28°C° 0 mm 1 mps 753 mmHg 67%
11:00 +30°C° 0 mm 1 mps 753 mmHg 59%
12:00 +31°C° 0 mm 2 mps 753 mmHg 55%
13:00 +31°C° 0 mm 2 mps 752 mmHg 51%
14:00 +33°C° 0 mm 3 mps 752 mmHg 47%
15:00 +30°C° 1.3 mm 3 mps 752 mmHg 58%
16:00 +27°C° 1.3 mm 3 mps 752 mmHg 70%
17:00 +24°C° 1.3 mm 3 mps 751 mmHg 81%
18:00 +24°C° 0.7 mm 3 mps 751 mmHg 85%
19:00 +23°C° 0.7 mm 2 mps 751 mmHg 89%
20:00 +22°C° 0.7 mm 1 mps 750 mmHg 93%
21:00 +22°C° 1.3 mm 1 mps 750 mmHg 94%
22:00 +22°C° 1.3 mm 1 mps 750 mmHg 95%
23:00 +22°C° 1.3 mm 1 mps 750 mmHg 96%
Show more